GEFSCGP_con_maxscp_204.txt.gz
SCP
0 0 0 0 0 0 0 0 0 0 0 0 0 0 1 1 1 1 1 1 1 1 1 1 1 2 2 2 2 2 2 1 1 1 1 1 1 1 1 1 1 1 1 1
0 0 0 0 0 0 0 0 0 0 0 0 0 0 0 1 1 1 1 1 1 1 1 1 2 2 2 2 2 2 1 1 1 1 1 1 1 1 1 1 1 1 1 1
0 0 0 0 0 0 0 0 0 0 0 0 0 0 0 1 1 2 2 1 1 1 2 2 3 3 4 4 3 2 1 1 1 1 1 1 1 1 1 1 1 1 1 1
0 0 0 0 0 0 0 0 0 0 0 0 0 0 0 0 1 2 1 1 1 1 2 3 3 4 4 4 4 3 1 1 1 1 1 1 1 1 1 1 1 1 1 1
0 0 0 0 0 0 0 0 0 0 0 0 0 0 0 0 1 1 1 1 1 2 2 3 3 3 3 3 2 2 2 1 1 1 1 1 1 1 1 1 1 1 1 1
0 0 0 0 0 0 0 0 0 0 0 0 0 0 0 0 0 1 1 1 1 2 3 3 3 3 2 2 1 1 2 2 2 2 2 1 1 1 1 1 1 1 1 1
0 0 0 0 0 0 0 0 0 0 0 0 0 0 0 0 0 0 1 1 1 2 2 3 3 3 3 2 2 2 2 2 3 3 2 2 2 1 1 1 1 1 1 1
0 0 0 0 0 0 0 0 0 0 0 0 0 0 0 0 0 1 1 1 1 2 2 2 3 3 3 2 2 2 3 3 3 3 2 2 2 2 2 2 2 1 1 1
0 0 0 0 0 0 0 0 0 0 0 0 0 0 0 1 1 1 1 1 1 2 2 2 2 3 3 3 3 3 4 4 4 3 3 2 2 2 2 2 2 1 1 1
0 0 0 0 0 0 0 0 0 0 0 0 0 0 0 1 1 1 2 2 2 2 2 2 2 3 3 3 4 4 5 5 4 4 3 3 2 2 2 2 2 1 1 1
0 0 0 0 0 0 0 0 0 0 0 0 0 0 1 1 1 2 2 2 2 2 3 3 3 3 3 4 4 4 4 5 4 4 3 3 2 2 2 2 2 1 1 1
0 0 0 0 0 0 0 0 0 0 0 0 0 0 1 1 2 2 2 2 2 2 3 3 3 3 3 3 4 4 4 4 4 4 3 3 2 2 2 2 2 1 1 1
0 0 0 0 0 0 0 0 0 0 0 0 0 1 1 1 2 2 2 2 2 2 3 3 3 3 3 3 4 4 4 4 4 4 4 3 3 3 2 2 2 2 2 2
0 0 0 0 0 0 0 0 0 0 0 0 0 1 1 1 2 2 2 2 2 2 3 3 3 3 2 3 3 4 5 5 4 4 4 4 3 3 3 3 2 2 2 2
0 0 0 0 0 0 0 0 0 0 0 0 0 0 1 1 2 2 2 2 3 3 3 3 3 2 2 2 3 4 4 4 4 4 4 3 3 3 4 4 4 3 3 3
0 0 0 0 0 0 0 0 0 0 0 0 0 1 1 2 2 2 2 2 3 3 3 3 3 2 2 3 3 4 4 5 4 4 4 4 3 3 4 4 5 5 4 4
0 0 0 0 0 0 0 0 0 0 0 1 1 1 2 2 3 3 2 3 3 3 3 3 3 3 3 3 4 5 6 5 5 5 4 4 4 4 4 4 5 5 5 5
0 0 0 0 0 0 0 1 1 1 1 1 1 2 3 4 4 3 3 3 3 3 3 3 3 3 3 3 5 7 8 7 6 5 5 5 4 4 4 4 4 4 5 5
0 0 0 0 0 0 0 1 1 1 1 1 2 3 4 5 4 4 3 3 4 4 3 3 3 3 4 5 7 9 9 7 6 5 5 5 5 4 4 4 4 4 4 4
0 0 0 0 0 0 0 1 1 1 1 1 2 3 4 4 3 3 3 3 4 4 3 3 3 4 5 7 9 9 8 7 6 5 5 4 4 4 4 4 4 4 3 3
0 0 0 0 0 0 1 1 1 1 1 1 2 4 3 3 3 3 3 3 4 4 3 4 4 5 6 7 8 7 6 5 5 4 3 3 3 3 3 3 3 3 2 2
0 0 0 0 0 1 1 1 1 1 1 1 3 3 3 3 3 3 3 4 4 4 4 5 5 5 5 5 5 5 5 4 3 3 2 2 2 2 3 3 3 2 2 2
1 0 0 1 1 2 2 2 2 2 2 2 2 3 3 3 3 4 4 5 5 4 5 5 4 4 4 4 4 4 3 3 3 2 2 2 2 2 2 2 2 2 2 2
1 1 1 2 2 4 4 4 3 3 3 3 3 3 2 3 3 4 5 5 4 4 4 4 4 4 5 5 4 3 3 3 3 3 3 3 2 2 2 2 2 2 2 2
1 1 1 2 3 5 5 4 3 3 3 3 3 3 2 3 3 4 4 5 4 4 4 4 5 5 5 4 3 3 3 3 4 4 4 3 3 3 3 3 3 3 3 3
1 1 1 2 3 4 4 3 2 2 2 2 3 3 3 3 3 4 4 4 4 4 3 4 5 5 4 3 2 2 3 3 4 4 4 4 3 3 3 4 4 3 3 3

GEFSCGP_con_maxscp_210.txt.gz
SCP
0 0 0 0 0 0 0 0 0 0 0 0 0 0 0 1 1 1 1 1 1 2 2 2 2 2 2 3 2 3 3 3 3 3 3 4 3 1 2 2 2 1 1 1
0 0 0 0 0 0 0 0 0 0 0 0 0 0 0 1 1 1 1 1 1 2 2 2 2 3 3 3 2 2 3 3 3 3 3 3 2 1 1 2 2 1 1 1
0 0 0 0 0 0 0 0 0 0 0 0 0 0 0 1 1 1 1 1 1 2 2 3 3 4 3 3 2 2 2 3 3 2 2 2 2 1 1 1 1 1 1 1
0 0 0 0 0 0 0 0 0 0 0 0 0 0 0 0 1 1 1 1 1 2 3 4 4 4 4 2 2 2 2 3 2 2 2 2 2 1 1 1 1 1 1 1
0 0 0 0 0 0 0 0 0 0 0 0 0 0 0 0 1 1 1 1 1 2 3 4 4 3 3 2 2 2 2 2 2 2 2 2 2 2 2 2 2 1 1 1
0 0 0 0 0 0 0 0 0 0 0 0 0 0 0 1 1 1 1 1 1 2 3 3 2 2 2 2 2 2 3 3 3 3 3 3 2 2 2 2 2 2 2 2
0 0 0 0 0 0 0 0 0 0 0 0 0 0 1 1 1 1 1 1 1 2 2 2 2 2 2 2 2 3 3 3 3 3 4 3 2 2 2 2 2 2 3 3
0 0 0 0 0 0 0 0 0 0 0 0 0 0 1 1 1 1 1 1 1 1 1 2 2 2 2 3 3 3 3 3 3 4 4 3 2 2 2 2 2 2 3 3
0 0 0 0 0 0 0 0 0 0 0 0 0 0 1 1 1 1 1 1 1 1 2 2 2 2 3 3 3 3 3 3 3 4 4 3 2 2 2 3 3 3 2 2
0 0 0 0 0 0 0 0 0 0 0 0 0 0 1 1 1 1 1 1 1 2 3 3 3 3 3 3 3 3 3 3 3 4 3 3 3 3 4 4 3 3 2 2
0 0 0 0 0 0 0 0 0 0 0 0 0 0 1 1 1 1 2 2 2 3 4 4 3 3 3 3 3 3 3 3 4 4 4 4 4 5 5 4 3 3 3 3
0 0 0 0 0 0 0 0 0 0 0 0 0 1 2 2 2 2 2 3 4 6 6 5 5 4 4 4 4 4 3 3 4 4 5 6 6 6 5 3 3 3 3 3
0 0 0 0 0 0 0 0 0 0 0 0 0 1 2 2 3 4 5 6 7 8 8 7 5 4 5 5 5 4 3 4 4 5 7 7 7 5 4 3 3 3 3 4
0 0 0 0 0 0 0 0 0 0 0 0 0 1 2 3 3 5 6 7 8 9 9 7 5 5 5 5 4 4 4 4 5 6 7 7 5 4 4 4 3 3 4 4
0 0 0 0 0 0 0 0 0 0 0 0 0 1 3 3 4 5 5 5 6 6 6 5 5 5 5 5 5 5 5 5 5 5 6 6 5 5 5 4 4 3 4 4
0 0 0 0 0 0 0 0 0 0 0 0 0 2 3 4 4 4 3 3 3 4 4 4 4 4 5 5 6 5 5 5 6 6 6 6 6 5 5 5 4 4 4 4
0 0 0 0 0 0 0 0 0 0 0 0 1 2 3 4 3 3 2 2 2 3 5 6 5 5 5 5 5 5 6 7 7 8 7 7 6 6 6 5 5 5 5 5
0 0 0 0 0 0 0 0 0 0 1 1 1 2 3 4 3 2 2 2 2 3 5 7 6 5 5 5 5 6 7 9 9 9 8 7 7 6 6 6 6 6 6 6
0 0 0 0 0 0 0 0 1 1 1 1 1 2 4 4 3 3 3 3 3 3 5 6 7 6 6 6 6 7 9 9 9 8 8 7 7 6 6 7 8 8 7 6
0 0 0 0 0 0 0 1 1 1 1 1 2 2 3 4 4 4 4 4 4 4 4 5 6 7 8 8 8 8 9 8 8 7 7 7 7 7 7 8 9 9 7 7
0 0 0 0 0 0 1 1 1 1 1 2 2 2 3 3 4 5 5 5 5 5 5 5 6 8 9 10 9 9 8 7 6 6 7 8 7 7 7 8 9 8 7 6
1 1 1 0 1 1 2 2 2 2 2 2 2 3 3 4 4 5 5 6 6 6 6 6 7 9 10 10 10 9 8 7 6 7 8 8 8 7 7 7 8 7 6 5
1 1 1 1 1 2 2 3 4 4 4 3 3 3 3 4 3 4 4 6 7 7 6 6 7 8 9 9 9 9 8 7 8 9 10 10 9 8 7 7 7 6 5 4
2 2 2 2 2 2 3 4 5 5 4 4 4 4 4 4 3 3 4 5 7 7 6 6 7 7 7 7 8 8 8 8 10 11 11 10 9 8 7 6 5 5 4 3
2 2 2 2 2 3 4 5 5 5 4 4 4 5 6 5 3 3 3 5 6 7 7 6 6 6 6 6 7 7 8 8 9 9 8 7 6 6 5 5 4 4 3 3
2 2 2 2 3 3 4 5 5 4 4 4 5 6 7 6 4 3 3 4 5 7 7 7 6 6 6 6 6 7 7 7 7 6 5 4 4 4 5 4 4 3 3 3

GEFSCGP_con_maxscp_216.txt.gz
SCP
0 0 0 0 0 0 0 0 0 0 0 0 0 1 1 1 1 2 4 5 5 6 6 5 5 7 7 6 5 4 3 3 4 4 4 4 3 2 2 2 3 2 2 2
0 0 0 0 0 0 0 0 0 0 0 0 0 1 1 1 1 2 3 5 6 7 6 6 6 8 7 5 4 4 3 3 3 4 4 4 3 2 2 2 3 2 2 2
0 0 0 0 0 0 0 0 0 0 0 0 0 1 1 1 1 1 2 5 7 8 7 7 9 9 7 4 4 3 4 3 3 3 3 3 3 3 2 2 3 3 3 3
0 0 0 0 0 0 0 0 0 0 0 0 0 1 1 1 1 1 3 6 9 10 9 9 10 9 6 4 3 4 5 5 4 4 4 3 3 3 3 3 3 3 3 3
0 0 0 0 0 0 0 0 0 0 0 0 0 1 1 1 2 3 7 12 13 12 10 8 8 7 5 4 4 5 6 6 5 5 4 4 4 4 3 3 3 3 3 3
0 0 0 0 0 0 0 0 0 0 0 0 0 1 1 1 3 7 13 16 14 11 8 6 6 5 5 4 4 6 7 7 7 6 6 5 5 5 4 3 3 3 3 3
0 0 0 0 0 0 0 0 0 0 0 0 0 1 2 3 5 10 14 13 10 7 5 4 5 5 5 4 5 7 8 8 8 7 7 6 5 5 4 3 3 3 3 3
0 0 0 0 0 0 0 0 0 0 0 0 1 1 3 5 9 12 12 9 6 4 3 3 4 4 4 5 6 8 10 10 9 8 8 7 5 4 4 3 3 3 3 3
0 0 0 0 0 0 0 0 0 0 0 0 1 2 4 7 10 11 9 6 4 3 3 4 4 4 4 5 6 8 10 11 10 9 8 7 6 5 4 4 4 4 3 3
0 0 0 0 0 0 0 0 0 0 0 0 1 2 4 8 8 7 5 4 4 4 5 6 7 7 7 6 6 7 9 11 10 8 7 6 6 6 5 4 4 4 4 3
0 0 0 0 0 0 0 0 0 0 0 0 1 1 3 5 5 4 5 5 5 6 7 8 8 9 9 8 7 7 7 8 8 8 7 7 7 7 6 5 5 4 5 5
0 0 0 0 0 0 0 0 0 0 1 0 0 1 2 4 5 6 7 6 6 7 8 7 8 9 9 8 8 8 7 7 8 9 9 8 8 7 6 5 5 6 6 6
0 0 0 0 0 0 0 0 0 0 0 0 0 1 2 5 8 9 7 6 5 6 7 7 8 8 8 8 9 8 7 7 8 9 9 8 7 6 5 5 6 7 8 8
0 0 0 0 0 0 0 0 0 0 0 0 0 1 4 7 10 9 7 5 5 6 7 7 8 8 8 8 9 8 7 7 7 8 8 7 6 6 6 6 7 7 7 7
0 0 0 0 0 0 0 0 0 0 0 0 0 2 6 10 10 8 6 5 6 6 7 7 8 8 8 8 8 8 7 7 7 7 7 7 7 6 7 7 7 7 7 7
1 1 0 0 0 0 0 0 0 0 0 0 0 3 8 10 9 7 6 5 6 6 7 8 7 7 8 8 8 8 8 8 8 8 8 8 8 8 8 7 7 7 7 7
1 1 1 1 0 0 0 0 0 0 0 0 1 5 8 8 7 6 6 6 6 6 8 8 7 7 8 8 9 9 10 10 9 8 8 9 10 9 8 8 8 8 8 9
2 2 1 1 0 0 0 0 0 0 0 1 2 5 7 7 6 6 7 7 6 6 7 7 6 7 9 9 9 10 11 10 9 9 8 9 10 10 9 8 9 9 9 10
2 2 1 0 0 0 1 1 0 0 1 2 3 6 8 7 6 6 7 7 6 5 6 6 6 7 9 10 10 10 10 10 9 9 9 9 10 10 10 9 10 10 10 11
1 2 1 1 1 1 1 2 2 1 2 2 4 7 8 7 6 6 7 8 7 6 7 7 7 8 10 11 11 10 10 10 10 10 10 9 10 10 9 10 10 11 10 11
1 1 1 1 1 1 2 4 4 3 3 4 6 8 8 6 6 6 7 7 7 7 7 8 8 10 11 11 11 11 11 12 12 11 10 10 10 9 9 10 11 11 10 10
1 1 1 1 2 3 4 5 5 5 5 6 7 8 9 8 8 7 7 7 8 8 8 8 9 11 12 11 11 12 14 15 14 12 11 10 10 9 9 9 10 10 10 11
1 1 2 3 4 5 6 6 6 7 6 6 7 8 9 9 9 9 9 9 9 9 9 9 9 11 11 11 12 13 15 16 15 12 11 10 9 8 7 8 9 10 10 10
2 2 3 4 5 6 6 6 6 6 6 6 6 8 8 8 8 9 11 12 12 11 10 10 9 10 11 12 14 15 15 15 13 11 9 8 7 5 5 6 8 8 8 8
2 2 3 5 6 6 5 5 5 6 7 7 7 8 9 7 7 9 11 12 12 11 11 10 9 9 11 13 14 14 14 13 11 8 7 5 4 3 4 5 5 5 4 4
2 3 3 4 6 6 5 4 4 7 10 10 8 8 8 8 8 9 10 10 10 10 10 9 8 10 11 12 12 11 12 12 10 7 5 4 3 3 3 4 3 2 2 2

GEFSCGP_con_maxscp_222.txt.gz
SCP
0 0 0 0 0 0 0 0 0 0 0 1 1 1 2 2 2 3 4 4 5 5 5 5 5 4 3 3 2 2 2 2 1 1 1 1 1 1 1 1 1 1 1 1
0 0 0 0 0 0 0 0 0 0 0 1 1 2 2 2 2 3 4 5 6 7 6 6 5 4 3 3 2 2 2 2 1 1 1 1 1 1 1 1 1 1 1 1
0 0 0 0 0 0 0 0 0 0 1 1 1 1 2 2 2 3 4 5 7 9 9 8 6 5 4 3 2 2 2 2 1 1 1 1 1 1 1 1 1 1 1 2
0 0 0 0 0 0 0 0 0 0 1 1 1 1 1 2 3 3 4 6 8 10 10 8 6 5 4 3 2 2 2 2 2 1 1 2 2 1 1 1 1 1 1 1
0 0 0 0 0 0 0 0 0 0 0 0 1 1 1 2 3 4 5 7 9 11 10 7 5 4 4 3 3 2 2 2 2 1 1 2 2 2 1 1 1 1 1 1
0 0 0 0 0 0 0 0 0 0 0 0 0 1 1 2 3 4 6 8 9 10 8 6 4 3 3 3 3 2 2 2 2 2 2 2 1 1 1 1 1 1 1 1
0 0 0 0 0 0 0 0 0 0 0 0 0 0 1 1 3 4 6 7 8 7 6 5 4 4 4 4 4 3 3 2 2 2 2 2 2 2 2 2 2 1 1 1
0 0 0 0 0 0 0 0 0 0 0 0 0 0 1 2 4 5 5 5 5 5 5 5 5 5 5 4 4 3 3 3 3 3 3 2 2 2 2 2 2 2 2 1
0 0 0 0 0 0 0 0 0 0 0 0 0 1 2 3 5 5 4 4 4 4 4 4 5 5 5 4 3 4 3 3 3 3 3 3 3 2 3 3 3 3 2 2
0 0 0 0 0 0 0 0 0 0 0 0 0 1 1 3 5 5 4 3 3 3 4 4 4 5 4 3 3 4 4 4 4 3 3 3 3 3 3 3 4 3 3 3
0 0 0 0 0 0 0 0 0 0 0 0 0 1 1 3 4 4 4 3 3 3 3 4 4 4 4 3 3 4 5 4 4 4 3 3 3 3 3 3 4 4 4 4
0 0 0 0 0 0 0 0 0 0 0 0 0 1 1 3 4 4 4 4 4 5 5 5 4 4 4 4 4 4 5 5 5 4 4 3 3 3 3 3 4 4 4 4
0 0 0 0 0 0 0 0 0 0 0 0 0 1 2 3 3 4 4 5 6 7 6 6 5 5 5 5 4 4 4 5 5 5 4 4 3 3 3 4 3 3 3 3
0 0 0 0 0 0 0 0 0 0 0 0 0 1 2 3 3 4 5 6 7 7 7 6 5 5 5 4 4 4 4 5 6 6 5 4 3 3 3 4 4 3 2 2
0 0 0 0 0 0 0 0 0 0 0 0 0 1 2 4 4 5 6 7 7 7 6 5 5 4 4 4 4 4 4 5 6 6 5 5 4 3 3 3 4 3 2 2
0 0 0 0 0 0 0 0 0 0 0 0 1 2 4 6 6 5 5 6 6 6 5 5 4 4 4 4 4 4 5 5 5 6 6 5 5 4 4 3 4 4 4 3
0 0 0 0 0 0 0 0 0 0 0 1 1 3 5 7 7 5 5 5 6 6 5 5 5 5 5 5 5 5 6 6 6 6 6 6 5 5 4 4 3 4 5 5
0 0 0 0 0 0 0 0 1 1 1 2 2 4 6 8 7 7 6 6 7 7 6 5 5 5 6 7 7 7 8 8 7 6 5 5 5 4 4 4 3 4 5 5
0 0 0 0 0 0 0 1 1 2 2 3 4 5 8 10 9 8 7 7 9 9 7 6 6 6 7 8 9 9 10 9 8 7 6 5 5 4 4 4 3 4 4 5
0 0 0 0 0 0 1 2 2 2 3 4 5 7 10 11 9 8 7 8 11 13 10 7 7 8 8 9 10 11 10 9 9 8 7 6 5 4 4 4 4 4 5 5
0 0 0 0 0 0 1 2 2 3 4 5 6 7 9 9 8 7 7 8 11 13 10 8 8 9 8 9 11 11 11 10 10 10 8 7 6 5 4 4 5 5 5 6
0 0 0 0 0 0 1 2 2 3 5 6 7 7 8 8 8 8 8 7 8 8 8 8 9 9 10 10 11 12 12 12 12 11 10 9 7 4 4 4 4 5 5 6
0 0 0 1 1 1 2 2 3 4 5 6 7 7 8 8 8 9 9 8 8 8 8 9 11 12 12 12 12 13 13 13 13 12 12 10 6 3 3 3 4 5 5 6
1 1 1 1 2 2 3 3 3 3 5 6 7 7 7 8 9 10 11 11 12 12 11 13 16 17 16 14 12 13 13 12 12 12 12 9 5 2 2 3 4 5 5 5
1 1 2 2 3 3 3 3 3 3 4 5 6 7 7 8 10 12 13 15 17 17 17 20 23 24 21 17 14 12 11 11 11 12 10 7 3 2 2 2 3 4 4 4
1 1 2 2 3 3 3 3 2 3 4 5 5 6 7 8 10 13 14 17 20 21 22 26 28 28 24 19 14 10 9 10 12 12 9 5 3 2 1 1 1 2 3 3

GEFSCGP_con_maxscp_228.txt.gz
SCP
0 0 0 0 0 0 0 0 0 0 0 0 0 1 1 1 1 1 1 1 2 2 2 3 3 2 1 1 1 1 1 1 1 1 1 1 0 0 0 0 1 1 1 1
0 0 0 0 0 0 0 0 0 0 0 0 0 1 1 1 1 1 1 1 2 3 3 3 3 2 2 1 1 1 1 1 1 1 1 1 1 1 0 1 1 1 1 1
0 0 0 0 0 0 0 0 0 0 0 0 0 1 1 1 1 1 1 2 2 3 4 4 4 3 2 2 1 1 1 1 1 1 1 1 1 1 1 1 1 1 1 1
0 0 0 0 0 0 0 0 0 0 0 0 0 0 1 1 1 1 2 2 3 3 4 4 4 3 2 2 1 1 1 1 1 1 1 1 1 1 1 1 1 1 1 1
0 0 0 0 0 0 0 0 0 0 0 0 0 0 0 0 1 2 2 3 4 4 4 4 3 2 2 2 1 1 1 1 1 1 1 1 1 1 1 1 1 1 1 1
0 0 0 0 0 0 0 0 0 0 0 0 0 0 0 0 1 1 3 4 5 5 5 4 3 2 2 2 1 1 1 1 1 1 1 1 1 1 1 1 1 1 1 1
0 0 0 0 0 0 0 0 0 0 0 0 0 0 0 0 1 1 3 5 6 6 5 3 2 2 2 2 1 1 1 1 1 1 1 1 1 1 1 1 1 1 1 2
0 0 0 0 0 0 0 0 0 0 0 0 0 0 0 1 1 1 3 5 5 5 4 3 2 2 2 2 1 1 1 1 1 1 1 1 1 1 1 1 1 2 2 2
0 0 0 0 0 0 0 0 0 0 0 0 0 0 0 1 1 2 3 4 4 4 3 2 2 2 2 2 2 1 1 1 2 2 1 1 1 1 1 2 2 2 2 2
0 0 0 0 0 0 0 0 0 0 0 0 0 0 0 1 1 2 2 3 3 3 2 2 2 3 3 3 2 2 2 2 2 2 2 2 2 1 1 2 2 2 2 1
0 0 0 0 0 0 0 0 0 0 0 0 0 0 0 0 1 2 2 3 3 2 2 2 2 2 3 3 3 3 3 2 2 3 2 2 2 2 2 2 2 2 1 1
0 0 0 0 0 0 0 0 0 0 0 0 0 0 0 1 1 2 3 3 3 2 2 2 2 2 2 3 3 3 3 3 3 3 3 2 2 2 2 2 2 1 1 1
0 0 0 0 0 0 0 0 0 0 0 0 0 0 0 1 1 2 3 3 2 2 3 2 2 2 3 3 3 3 2 3 3 3 3 2 2 2 2 2 2 2 2 2
0 0 0 0 0 0 0 0 0 0 0 0 0 0 0 1 1 2 2 2 2 3 3 3 2 3 3 4 4 3 2 3 3 3 3 2 2 2 2 2 2 2 2 2
0 0 0 0 0 0 0 0 0 0 0 0 0 0 0 1 1 2 2 2 3 3 3 2 2 3 3 5 5 4 3 3 3 3 3 3 2 2 2 2 2 2 2 2
0 0 0 0 0 0 0 0 0 0 0 0 0 0 0 1 2 2 2 2 3 3 3 2 2 3 3 5 6 5 4 4 4 3 3 3 3 2 2 2 2 2 2 2
0 0 0 0 0 0 0 0 0 0 0 0 0 1 1 1 2 2 2 2 2 2 2 2 3 3 3 5 6 6 5 5 5 4 3 3 3 3 2 2 2 2 3 3
0 0 0 0 0 0 0 0 0 0 0 1 1 1 2 2 2 2 2 2 2 2 2 3 3 3 3 5 6 6 6 5 5 4 3 3 3 3 2 2 2 2 3 3
0 0 0 0 0 0 0 0 0 0 1 1 1 2 2 3 3 2 2 2 3 3 3 3 3 3 3 4 6 6 6 6 5 4 4 3 3 3 2 2 2 2 2 2
0 0 0 0 0 0 0 0 0 0 0 1 1 2 3 3 3 2 2 2 2 3 3 3 3 3 3 3 4 5 6 7 6 5 5 4 3 3 3 3 2 2 2 2
0 0 0 0 0 0 0 0 0 0 1 1 1 2 2 2 2 2 3 3 3 3 4 4 4 3 3 3 4 5 6 7 7 7 6 5 5 4 3 3 3 2 2 2
0 0 0 0 0 0 1 1 1 1 1 1 1 2 2 2 3 3 3 3 4 4 5 4 4 4 3 4 5 5 6 7 8 8 8 7 6 5 4 3 2 2 2 2
0 0 0 1 1 1 1 1 1 1 1 1 1 2 3 3 3 3 4 4 5 6 5 4 4 5 4 4 4 5 5 6 8 9 9 8 7 6 5 4 3 1 2 3
0 0 1 1 2 1 1 2 2 3 3 2 2 3 3 4 3 3 3 5 6 7 5 4 4 5 5 4 4 4 5 6 8 9 9 9 8 7 6 4 3 2 2 3
1 1 1 2 2 2 2 3 3 3 4 4 3 3 3 4 4 3 3 5 6 7 5 4 5 5 5 5 4 4 5 7 9 9 8 8 8 8 7 5 3 1 1 2
1 1 1 1 1 1 3 3 3 3 3 4 4 3 3 3 4 4 4 5 6 6 6 5 5 5 5 4 4 5 6 7 9 9 8 7 7 7 7 5 2 1 1 1

GEFSCGP_con_maxscp_234.txt.gz
SCP
0 0 0 0 0 0 0 0 0 0 0 0 0 0 1 1 1 1 1 1 2 2 3 3 3 3 2 2 1 2 2 2 2 2 2 1 1 1 1 1 1 1 1 1
0 0 0 0 0 0 0 0 0 0 0 0 0 1 1 1 1 1 1 2 2 3 3 3 3 3 2 2 1 2 2 2 2 2 2 1 1 1 1 1 1 1 1 1
0 0 0 0 0 0 0 0 0 0 0 0 0 0 1 1 1 1 2 2 3 4 4 4 3 3 3 2 2 1 2 2 2 1 1 1 1 1 1 1 1 1 1 1
0 0 0 0 0 0 0 0 0 0 0 0 0 0 1 1 1 1 2 2 3 4 4 4 4 3 3 2 1 1 2 2 2 1 1 1 1 1 1 1 1 1 1 1
0 0 0 0 0 0 0 0 0 0 0 0 0 0 0 1 1 1 2 2 2 3 4 4 4 3 3 2 1 1 2 2 2 2 2 2 1 1 1 2 2 1 2 2
0 0 0 0 0 0 0 0 0 0 0 0 0 0 0 1 1 1 2 2 2 3 3 3 3 3 2 2 1 1 2 2 2 2 2 2 2 2 2 2 2 2 2 2
0 0 0 0 0 0 0 0 0 0 0 0 0 0 0 0 1 1 1 1 2 3 3 3 2 2 2 2 2 2 2 2 2 2 2 2 2 2 2 2 2 2 2 3
0 0 0 1 0 0 0 0 0 0 0 0 0 0 0 0 0 1 1 1 2 3 3 2 2 2 2 2 2 2 3 2 2 2 2 2 2 2 2 2 2 2 3 3
0 0 0 1 1 1 0 0 0 0 0 0 0 0 0 0 0 1 1 1 2 3 3 2 2 2 2 2 3 3 4 5 5 4 3 3 3 2 2 2 2 3 3 3
0 0 0 1 1 1 1 0 0 0 0 0 0 0 0 0 1 1 1 1 2 2 2 2 2 3 3 4 4 5 6 7 7 6 5 4 3 3 3 3 3 3 3 2
0 0 0 1 1 1 1 1 0 0 0 0 0 0 0 0 1 1 1 2 2 2 2 2 3 3 4 6 7 7 7 6 6 6 5 4 4 4 3 3 3 3 2 2
0 0 0 0 0 1 1 1 0 0 0 0 0 0 0 0 1 1 1 2 2 2 2 2 3 3 5 6 7 8 7 6 5 4 4 4 4 4 3 3 3 3 3 2
0 0 0 0 0 1 1 1 0 0 0 0 0 0 0 0 1 1 1 2 2 2 2 3 3 3 4 5 7 8 9 7 5 4 3 3 3 3 3 3 3 3 3 3
0 0 0 0 0 0 1 0 0 0 0 0 0 0 0 1 1 1 2 2 3 3 3 4 4 4 4 5 6 7 8 8 6 4 3 3 3 3 3 3 3 3 3 3
0 0 0 0 0 0 0 0 0 0 0 0 0 0 0 1 1 1 2 3 3 3 5 7 6 5 4 4 4 5 6 7 6 5 5 5 5 4 4 3 3 3 3 3
0 0 0 0 0 0 0 0 0 0 0 0 0 0 1 1 1 2 2 3 4 3 4 7 8 7 5 4 4 4 5 6 6 6 7 7 6 5 4 4 3 3 3 3
0 0 0 0 0 0 0 0 0 0 0 0 1 1 1 1 1 2 3 4 4 3 3 5 7 7 5 4 4 4 4 5 7 8 9 8 6 5 4 4 3 4 4 4
1 1 1 0 0 0 0 0 0 1 1 1 1 1 1 1 2 2 3 4 4 4 4 4 5 5 5 5 4 4 4 6 8 10 11 10 9 7 5 4 4 4 4 4
1 1 1 0 0 0 0 0 0 1 1 1 1 1 2 1 1 2 3 4 5 6 5 4 4 5 5 5 4 4 5 7 10 12 12 11 10 9 6 5 4 4 4 4
1 1 0 0 0 0 0 0 0 1 1 1 1 1 2 2 2 2 3 5 6 6 5 5 5 6 6 5 5 5 5 7 9 12 12 11 10 9 8 6 5 5 5 5
1 1 0 0 0 0 0 1 1 1 2 2 2 2 2 2 2 3 4 5 6 6 5 6 7 8 8 7 5 5 5 6 7 9 10 9 9 10 9 7 6 6 6 6
0 0 0 0 0 1 1 1 2 3 4 3 3 2 2 2 3 4 4 5 5 5 6 7 9 10 10 8 6 5 5 6 6 7 8 9 10 10 9 8 7 7 6 6
1 1 1 1 1 1 2 3 4 5 5 5 4 3 3 3 4 5 5 5 5 5 6 9 11 12 11 9 7 6 6 6 6 7 7 8 9 10 9 9 8 7 6 6
1 1 1 2 2 2 2 3 4 5 5 5 4 4 3 4 5 5 5 5 6 6 7 9 11 12 11 9 7 6 6 6 7 7 7 8 8 10 11 10 9 8 7 6
2 2 2 2 2 2 2 3 3 4 4 4 4 3 3 4 4 5 6 6 7 7 7 9 11 11 10 8 7 6 6 7 7 8 8 8 8 10 11 11 10 8 7 6
2 2 2 2 3 3 3 3 3 3 3 3 3 3 3 3 4 5 6 7 7 7 7 9 11 11 10 8 6 5 6 7 8 8 8 8 8 9 11 11 10 8 6 5